Kiana, AK

10:28 PM AKDT on May 26, 2018 (GMT -0800)
Baker Memorial

Weather History for PAIK - January, 2013

Change the Weather History Date:

Thursday, January 24, 2013

  Actual Average (PASK) Record (PASK)
Temperature  
Mean Temperature 0 °F -  
Max Temperature 1 °F -1 °F 35 °F (2014)
Min Temperature -6 °F -11 °F -50 °F (2002)
Degree Days  
Heating Degree Days 64    
Moisture  
Dew Point -14 °F    
Average Humidity 51    
Maximum Humidity 62    
Minimum Humidity 40    
Precipitation  
Precipitation 0.00 in - - ()
Sea Level Pressure  
Sea Level Pressure 30.29 in    
Wind  
Wind Speed 7 mph (NE)    
Max Wind Speed 17 mph    
Max Gust Speed 24 mph    
Visibility 10 miles    
Events      
Averages and records for this station are not official NWS values.
T = Trace of Precipitation, MM = Missing Value Source: NWS Daily Summary

Daily Weather History Graph

Daily Weather History Graph

Search for Another Location

Airport or City:

Astronomy

Jan. 24, 2013 Rise Set
Actual Time 11:15 AM AKST 4:32 PM AKST
Civil Twilight 10:01 AM AKST 5:47 PM AKST
Nautical Twilight 8:51 AM AKST 6:57 PM AKST
Astronomical Twilight 7:48 AM AKST 8:00 PM AKST
Moon 2:24 PM AKST (1/24) 9:45 AM AKST (1/24)
Length of Visible Light 7h 45m
Length of Day
5h 17m
Waxing Gibbous, 95% of the Moon is Illuminated
Jan 24
Waxing Gibbous
Jan 26
Full
Feb 3
Last Quarter
Feb 9
New
Feb 17
First Quarter

Hourly Weather History & Observations

Time (AKST) Temp. Windchill Dew Point Humidity Pressure Visibility Wind Dir Wind Speed Gust Speed Precip Events Conditions
12:01 AM -6.0 °F -20.1 °F -16.1 °F 62% 30.17 in 10.0 mi ENE 6.9 mph - N/A   Clear
1:01 AM -5.1 °F -21.5 °F -16.1 °F 59% 30.18 in 10.0 mi NE 9.2 mph - N/A   Clear
2:01 AM -6.0 °F -14.7 °F -17.0 °F 59% 30.20 in 10.0 mi NE 3.5 mph - N/A   Clear
3:01 AM -5.1 °F -15.8 °F -16.1 °F 59% 30.21 in 10.0 mi NE 4.6 mph - N/A   Clear
4:01 AM -5.1 °F -15.8 °F -17.0 °F 57% 30.22 in 10.0 mi NNW 4.6 mph - N/A   Clear
5:01 AM -0.0 °F -9.9 °F -15.0 °F 49% 30.23 in 10.0 mi Variable 4.6 mph - N/A   Clear
6:01 AM 3.9 °F -13.7 °F -14.1 °F 43% 30.23 in 10.0 mi NNE 13.8 mph 23.0 mph N/A   Clear
7:01 AM 7.0 °F -11.6 °F -13.0 °F 40% 30.24 in 10.0 mi NE 17.3 mph 21.9 mph N/A   Clear
8:01 AM 3.9 °F -12.2 °F -11.9 °F 48% 30.25 in 10.0 mi ENE 11.5 mph 20.7 mph N/A   Clear
9:01 AM 6.1 °F -12.2 °F -11.0 °F 45% 30.25 in 10.0 mi NE 16.1 mph 24.2 mph N/A   Clear
10:01 AM 5.0 °F -4.1 °F -11.9 °F 46% 30.27 in 10.0 mi SSW 4.6 mph - N/A   Clear
11:01 AM 5.0 °F - -9.9 °F 50% 30.29 in 10.0 mi Calm Calm - N/A   Clear
12:01 PM 5.0 °F -10.0 °F -11.0 °F 48% 30.31 in 10.0 mi NE 10.4 mph - N/A   Clear
1:01 PM 6.1 °F -2.8 °F -11.0 °F 45% 30.32 in 10.0 mi Variable 4.6 mph - N/A   Clear
2:01 PM 6.1 °F -0.9 °F -11.9 °F 44% 30.33 in 10.0 mi ENE 3.5 mph - N/A   Clear
3:01 PM 6.1 °F -6.8 °F -11.9 °F 44% 30.33 in 10.0 mi ENE 8.1 mph - N/A   Clear
4:01 PM -2.0 °F - -15.0 °F 54% 30.34 in 10.0 mi Calm Calm - N/A   Clear
5:01 PM -2.0 °F - -15.0 °F 54% 30.34 in 10.0 mi Calm Calm - N/A   Clear
6:01 PM -4.0 °F - -17.0 °F 54% 30.34 in 10.0 mi Calm Calm - N/A   Clear
7:01 PM -6.0 °F - -18.0 °F 56% 30.35 in 10.0 mi Calm Calm - N/A   Clear
8:01 PM -6.0 °F - -17.0 °F 59% 30.36 in 10.0 mi Calm Calm - N/A   Clear
9:01 PM 1.9 °F -11.8 °F -9.9 °F 58% 30.36 in 10.0 mi North 8.1 mph - N/A   Clear
10:01 PM 5.0 °F -6.9 °F -11.0 °F 48% 30.37 in 10.0 mi NNW 6.9 mph - N/A   Clear
11:01 PM 6.1 °F -8.7 °F -9.9 °F 48% 30.37 in 10.0 mi North 10.4 mph - N/A   Clear